CW7615 Weather Reports


time (UTC)temp
C
wind
direction
speed
KPH
gust
KPH
rain 1hr
cm
rain 24hr
cm
rain mn
cm
humidity
%
barometer
mb
20260507162014 18 105 9.7 16.1 0.00 0.00 0.00 68 1010.1
20260507161521 18 111 8.0 16.1 0.00 0.00 0.00 68 1010.1
20260507161014 18 119 11.3 16.1 0.00 0.00 0.00 67 1010.1
20260507160514 18 108 9.7 17.7 0.00 0.00 0.00 66 1010.2
20260507160018 18 130 9.7 19.3 0.00 0.00 0.00 65 1010.2
20260507155514 19 127 9.7 17.7 0.00 0.00 0.00 65 1010.3
20260507155013 19 117 11.3 16.1 0.00 0.00 0.00 65 1010.2
20260507154518 19 117 4.8 17.7 0.00 0.00 0.00 65 1010.2
20260507154012 19 106 9.7 19.3 0.00 0.00 0.00 65 1010.3
20260507153516 19 78 14.5 19.3 0.00 0.00 0.00 64 1010.3
20260507153013 19 84 6.4 19.3 0.00 0.00 0.00 66 1010.3
20260507152513 19 111 9.7 20.9 0.00 0.00 0.00 65 1010.2
20260507152012 20 104 12.9 20.9 0.00 0.00 0.00 65 1010.3
20260507151512 20 142 11.3 20.9 0.00 0.00 0.00 65 1010.2
20260507151012 20 146 4.8 17.7 0.00 0.00 0.00 66 1010.2
20260507150516 20 125 9.7 19.3 0.00 0.00 0.00 66 1010.4
20260507150011 20 142 12.9 19.3 0.00 0.00 0.00 65 1010.3
20260507145518 21 176 6.4 14.5 0.00 0.00 0.00 64 1010.4
20260507145010 20 164 3.2 8.0 0.00 0.00 0.00 63 1010.3
20260507144514 20 5 3.2 6.4 0.00 0.00 0.00 59 1010.5
20260507144010 19 137 1.6 6.4 0.00 0.00 0.00 59 1010.4
20260507143510 19 143 1.6 12.9 0.00 0.00 0.00 59 1010.6
20260507143009 20 130 6.4 12.9 0.00 0.00 0.00 62 1010.6
20260507142509 20 128 3.2 12.9 0.00 0.00 0.00 61 1010.7
20260507142017 20 123 3.2 9.7 0.00 0.00 0.00 63 1010.7
20260507141510 20 128 3.2 9.7 0.00 0.00 0.00 60 1010.9
20260507141009 20 56 3.2 9.7 0.00 0.00 0.00 58 1011.0
20260507140508 21 350 3.2 9.7 0.00 0.00 0.00 59 1011.0
20260507140008 21 78 1.6 12.9 0.00 0.00 0.00 60 1011.1
20260507135505 20 322 6.4 12.9 0.00 0.00 0.00 61 1011.3
20260507135004 20 16 4.8 12.9 0.00 0.00 0.00 65 1011.4
20260507134503 19 36 4.8 14.5 0.00 0.00 0.00 66 1011.5
20260507134005 18 91 8.0 14.5 0.00 0.00 0.00 70 1011.7
20260507133600 18 27 6.4 11.3 0.00 0.00 0.00 73 1011.6
20260507133059 17 161 1.6 6.4 0.00 0.00 0.00 77 1011.8
20260507132600 17 117 1.6 6.4 0.00 0.00 0.00 77 1011.8
20260507132056 16 115 3.2 6.4 0.00 0.00 0.00 78 1011.9
20260507131557 16 115 0.0 4.8 0.00 0.00 0.00 78 1011.9
20260507131057 16 111 0.0 4.8 0.00 0.00 0.00 79 1012.0
20260507130557 16 109 1.6 4.8 0.00 0.00 0.00 80 1012.1
20260507130108 16 109 1.6 4.8 0.00 0.00 0.00 80 1012.1
20260507125556 16 109 0.0 6.4 0.00 0.00 0.00 79 1012.2
20260507125058 16 109 1.6 6.4 0.00 0.00 0.00 79 1012.2
20260507124559 16 109 0.0 6.4 0.00 0.00 0.00 80 1012.2
20260507124056 16 109 1.6 9.7 0.00 0.00 0.00 80 1012.3
20260507123555 16 112 4.8 9.7 0.00 0.00 0.00 81 1012.3
20260507123055 16 138 1.6 4.8 0.00 0.00 0.00 81 1012.2
20260507122556 16 161 1.6 8.0 0.00 0.00 0.00 81 1012.3
20260507122055 16 161 0.0 9.7 0.00 0.00 0.00 81 1012.4
20260507121555 16 162 3.2 9.7 0.00 0.00 0.00 80 1012.3
20260507121058 16 186 3.2 9.7 0.00 0.00 0.00 80 1012.5
20260507120555 16 146 3.2 11.3 0.00 0.00 0.00 81 1012.4
20260507120054 16 132 3.2 12.9 0.00 0.00 0.00 81 1012.5
20260507115554 16 167 4.8 12.9 0.00 0.00 0.00 82 1012.5
20260507115053 16 128 4.8 8.0 0.00 0.00 0.00 83 1012.5
20260507114557 16 158 1.6 11.3 0.00 0.00 0.00 84 1012.5
20260507114053 16 134 3.2 12.9 0.00 0.00 0.00 83 1012.5
20260507113552 16 117 4.8 14.5 0.00 0.00 0.00 83 1012.6
20260507113052 16 127 6.4 17.7 0.00 0.00 0.00 82 1012.6
20260507112553 16 114 12.9 22.5 0.00 0.00 0.00 80 1012.6
20260507112053 16 115 14.5 22.5 0.00 0.00 0.00 78 1012.5
20260507111552 16 143 12.9 19.3 0.00 0.00 0.00 77 1012.6
20260507111055 17 121 11.3 20.9 0.00 0.00 0.00 75 1012.6
20260507110551 17 120 11.3 19.3 0.00 0.00 0.00 74 1012.5
20260507110053 17 134 8.0 19.3 0.00 0.00 0.00 72 1012.5
20260507105550 17 119 9.7 19.3 0.00 0.00 0.00 70 1012.5
20260507105053 17 111 6.4 17.7 0.00 0.00 0.00 70 1012.4
20260507104553 17 134 8.0 14.5 0.00 0.00 0.00 69 1012.4
20260507104049 17 139 3.2 17.7 0.00 0.00 0.00 69 1012.4
20260507103548 16 122 6.4 17.7 0.00 0.00 0.00 68 1012.4
20260507103047 16 78 4.8 20.9 0.00 0.00 0.00 70 1012.4
20260507102547 16 121 8.0 20.9 0.00 0.00 0.00 71 1012.3
20260507102047 16 170 8.0 22.5 0.00 0.00 0.00 72 1012.3
20260507101550 16 117 8.0 22.5 0.00 0.00 0.00 74 1012.2
20260507101050 16 86 11.3 20.9 0.00 0.00 0.00 75 1012.3
20260507100545 16 165 11.3 20.9 0.00 0.00 0.00 76 1012.2
20260507100045 16 104 8.0 25.7 0.00 0.00 0.00 76 1012.2
20260507095545 15 112 9.7 25.7 0.00 0.00 0.00 79 1012.3
20260507095044 15 92 9.7 25.7 0.00 0.00 0.00 81 1012.2
20260507094547 15 121 12.9 22.5 0.00 0.00 0.00 86 1012.3
20260507094045 15 151 8.0 25.7 0.00 0.00 0.00 87 1012.2
20260507093542 15 82 6.4 27.4 0.00 0.00 0.00 86 1012.1
20260507093045 15 123 14.5 27.4 0.00 0.00 0.00 84 1012.2
20260507092541 16 91 4.8 16.1 0.00 0.00 0.00 84 1012.0
20260507092041 16 143 8.0 16.1 0.00 0.00 0.00 84 1011.9
20260507091542 16 182 6.4 16.1 0.00 0.00 0.00 85 1011.7
20260507091040 16 177 3.2 8.0 0.00 0.00 0.00 85 1011.7
20260507090540 16 159 1.6 16.1 0.00 0.00 0.00 85 1011.8
20260507090040 16 80 9.7 16.1 0.00 0.00 0.00 85 1011.8
20260507085540 16 123 6.4 19.3 0.00 0.00 0.00 84 1011.7
20260507085044 16 36 9.7 19.3 0.00 0.00 0.00 84 1011.7
20260507084543 16 121 8.0 16.1 0.00 0.00 0.00 83 1011.7
20260507084038 17 104 8.0 16.1 0.00 0.00 0.00 84 1011.7
20260507083537 17 126 6.4 16.1 0.00 0.00 0.00 83 1011.7
20260507083038 16 109 6.4 14.5 0.00 0.00 0.00 83 1011.7
20260507082535 16 128 6.4 14.5 0.00 0.00 0.00 83 1011.6
20260507082041 16 117 9.7 14.5 0.00 0.00 0.00 83 1011.6
20260507081637 16 86 6.4 14.5 0.00 0.00 0.00 83 1011.6
20260507081034 16 152 6.4 14.5 0.00 0.00 0.00 82 1011.7
20260507080534 16 114 6.4 12.9 0.00 0.00 0.00 82 1011.5
20260507080038 16 157 1.6 6.4 0.00 0.00 0.00 82 1011.6
20260507075532 16 148 1.6 12.9 0.00 0.00 0.00 81 1011.6
20260507075036 16 135 4.8 12.9 0.00 0.00 0.00 81 1011.5
20260507074532 16 121 3.2 9.7 0.00 0.00 0.00 81 1011.5
20260507074030 16 152 1.6 6.4 0.00 0.00 0.00 81 1011.4
20260507073532 16 126 1.6 6.4 0.00 0.00 0.00 81 1011.4
20260507073029 16 108 0.0 4.8 0.00 0.00 0.00 81 1011.4
20260507072529 16 19 0.0 0.0 0.00 0.00 0.00 81 1011.4
20260507072027 16 355 0.0 0.0 0.00 0.00 0.00 81 1011.4
20260507071527 16 355 0.0 1.6 0.00 0.00 0.00 80 1011.3
20260507071025 16 355 0.0 1.6 0.00 0.00 0.00 80 1011.3
20260507070530 16 355 0.0 3.2 0.00 0.00 0.00 79 1011.4
20260507070026 16 355 0.0 3.2 0.00 0.00 0.00 79 1011.3
20260507065523 16 355 0.0 3.2 0.00 0.00 0.00 78 1011.2
20260507065023 16 355 0.0 1.6 0.00 0.00 0.00 79 1011.2
20260507064523 16 355 0.0 4.8 0.00 0.00 0.00 77 1011.1
20260507064022 16 355 0.0 4.8 0.00 0.00 0.00 76 1010.9
20260507063521 16 355 0.0 3.2 0.00 0.00 0.00 77 1010.9
20260507063020 15 355 1.6 3.2 0.00 0.00 0.00 76 1010.8
20260507062518 15 355 0.0 4.8 0.00 0.00 0.00 77 1010.8
20260507062018 15 355 0.0 6.4 0.00 0.00 0.00 73 1010.8
20260507061517 15 355 3.2 8.0 0.00 0.00 0.00 72 1010.8
20260507061018 15 355 4.8 8.0 0.00 0.00 0.00 72 1010.8
20260507060516 15 5 0.0 4.8 0.00 0.00 0.00 73 1010.9
20260507060026 15 5 0.0 6.4 0.00 0.00 0.00 72 1010.9
20260507055520 15 5 0.0 8.0 0.00 0.00 0.00 72 1010.7
20260507055014 15 360 4.8 8.0 0.00 0.00 0.00 72 1010.6
20260507054512 15 355 4.8 8.0 0.00 0.00 0.00 72 1010.7
20260507054013 15 350 4.8 6.4 0.00 0.00 0.00 72 1010.6
20260507053513 15 355 3.2 6.4 0.00 0.00 0.00 72 1010.5
20260507053011 15 340 1.6 9.7 0.00 0.00 0.00 72 1010.5
20260507052511 15 355 4.8 9.7 0.00 0.00 0.00 72 1010.4
20260507052018 15 327 6.4 9.7 0.00 0.00 0.00 72 1010.4
20260507051511 15 355 4.8 9.7 0.00 0.00 0.00 71 1010.4
20260507051010 15 333 3.2 9.7 0.00 0.00 0.00 71 1010.3
20260507050509 15 355 3.2 9.7 0.00 0.00 0.00 71 1010.4
20260507050010 15 355 3.2 6.4 0.00 0.00 0.00 72 1010.4
20260507045510 15 322 0.0 4.8 0.00 0.00 0.00 75 1010.2
20260507045010 15 322 0.0 4.8 0.00 0.00 0.00 77 1010.3
20260507044525 15 297 0.0 3.2 0.00 0.00 0.00 76 1010.3
20260507044009 15 329 0.0 4.8 0.00 0.00 0.00 73 1010.1
20260507043509 15 330 1.6 6.4 0.00 0.00 0.00 70 1010.1
20260507043010 15 350 1.6 14.5 0.00 0.00 0.00 69 1010.0
20260507042507 14 293 8.0 14.5 0.00 0.00 0.00 68 1010.0
20260507042008 14 355 6.4 9.7 0.00 0.00 0.00 67 1009.9
20260507041508 14 345 4.8 9.7 0.00 0.00 0.00 67 1010.0
20260507041008 14 348 4.8 8.0 0.00 0.00 0.00 67 1009.9
20260507040508 14 5 6.4 9.7 0.00 0.00 0.00 67 1009.8
20260507040008 14 351 6.4 9.7 0.00 0.00 0.00 67 1009.8
20260507035507 14 5 6.4 9.7 0.00 0.00 0.00 68 1009.8
20260507035007 14 15 4.8 9.7 0.00 0.00 0.00 67 1009.9
20260507034506 14 5 4.8 9.7 0.00 0.00 0.00 67 1009.8
20260507034006 14 360 6.4 9.7 0.00 0.00 0.00 67 1009.8
20260507033505 14 5 6.4 12.9 0.00 0.00 0.00 67 1009.9
20260507033004 15 19 8.0 12.9 0.00 0.00 0.00 67 1010.0
20260507032504 14 355 8.0 14.5 0.00 0.00 0.00 67 1010.1
20260507032003 14 350 6.4 14.5 0.00 0.00 0.00 67 1010.1
20260507031503 14 360 9.7 14.5 0.00 0.00 0.00 66 1010.2
20260507031004 14 5 8.0 14.5 0.00 0.00 0.00 67 1010.2
20260507030503 14 17 9.7 14.5 0.00 0.00 0.00 67 1010.2
20260507030004 14 360 8.0 14.5 0.00 0.00 0.00 67 1010.3
20260507025503 14 350 8.0 14.5 0.00 0.00 0.00 67 1010.2
20260507025003 13 355 9.7 14.5 0.00 0.00 0.00 67 1010.3
20260507024502 13 355 8.0 14.5 0.00 0.00 0.00 67 1010.3
20260507024002 13 355 8.0 16.1 0.00 0.00 0.00 67 1010.2
20260507023500 13 350 11.3 16.1 0.00 0.00 0.00 66 1010.2
20260507023100 13 10 8.0 14.5 0.00 0.00 0.00 66 1010.2
20260507022559 13 351 6.4 14.5 0.00 0.00 0.00 67 1010.3
20260507022059 13 360 6.4 14.5 0.00 0.00 0.00 67 1010.2
20260507021559 13 333 6.4 14.5 0.00 0.00 0.00 67 1010.1
20260507021057 13 346 6.4 14.5 0.00 0.00 0.00 67 1010.2
20260507020555 13 355 6.4 14.5 0.00 0.00 0.00 67 1010.2
20260507020157 13 355 8.0 14.5 0.00 0.00 0.00 67 1010.3
20260507015553 13 355 4.8 8.0 0.00 0.00 0.00 67 1010.3
20260507015056 13 343 3.2 9.7 0.00 0.00 0.00 67 1010.5
20260507014554 14 345 4.8 9.7 0.00 0.00 0.00 66 1010.3
20260507014053 14 5 4.8 9.7 0.00 0.00 0.00 65 1010.3
20260507013553 14 313 3.2 9.7 0.00 0.00 0.00 66 1010.3
20260507013059 14 313 4.8 9.7 0.00 0.00 0.00 66 1010.3
20260507012551 14 333 1.6 9.7 0.00 0.00 0.00 65 1010.2
20260507012052 14 314 4.8 12.9 0.00 0.00 0.00 65 1010.2
20260507011555 14 315 6.4 12.9 0.00 0.00 0.00 65 1010.3
20260507011051 14 340 6.4 9.7 0.00 0.00 0.00 65 1010.3
20260507010550 14 340 3.2 9.7 0.00 0.00 0.00 65 1010.3
20260507010049 14 347 4.8 12.9 0.00 0.00 0.00 65 1010.3
20260507005550 14 360 6.4 14.5 0.00 0.00 0.00 66 1010.2
20260507005047 14 5 8.0 12.9 0.00 0.00 0.00 66 1010.2
20260507004548 14 9 6.4 16.1 0.00 0.00 0.00 66 1010.2
20260507004046 14 15 6.4 16.1 0.00 0.00 0.00 67 1010.2
20260507003550 14 355 9.7 16.1 0.00 0.00 0.00 67 1010.3
20260507003046 14 5 6.4 14.5 0.00 0.00 0.00 68 1010.3
20260507002544 15 349 6.4 14.5 0.00 0.00 0.00 68 1010.4
20260507002142 15 355 9.7 14.5 0.00 0.00 0.00 68 1010.6
20260507001542 15 355 8.0 14.5 0.00 0.00 0.00 69 1010.6
20260507001038 15 344 4.8 9.7 0.00 0.00 0.00 69 1010.6
20260507000540 15 342 3.2 8.0 0.00 0.00 0.00 69 1010.7
20260507000040 15 344 3.2 8.0 0.00 0.00 0.00 70 1010.7
20260506235537 15 5 4.8 12.9 0.00 0.00 0.00 70 1010.7
20260506235036 15 23 8.0 12.9 0.00 0.00 0.00 70 1010.8
20260506234536 15 325 4.8 8.0 0.00 0.00 0.00 70 1010.9
20260506234035 15 344 4.8 8.0 0.00 0.00 0.00 70 1011.0
20260506233536 15 345 0.0 3.2 0.00 0.00 0.00 71 1011.1
20260506233036 15 344 0.0 6.4 0.00 0.00 0.00 71 1011.1
20260506232533 15 342 1.6 6.4 0.00 0.00 0.00 71 1011.1
20260506232033 15 347 1.6 6.4 0.00 0.00 0.00 71 1011.0
20260506231532 15 337 3.2 6.4 0.00 0.00 0.00 71 1011.0
20260506231033 15 347 3.2 8.0 0.00 0.00 0.00 71 1011.1
20260506230531 15 342 3.2 8.0 0.00 0.00 0.00 71 1011.0
20260506230032 15 351 4.8 8.0 0.00 0.00 0.00 72 1010.9
20260506225530 15 355 0.0 6.4 0.00 0.00 0.00 71 1011.0
20260506225031 15 333 1.6 6.4 0.00 0.00 0.00 71 1011.1
20260506224530 15 348 1.6 6.4 0.00 0.00 0.00 70 1011.1
20260506224028 15 351 1.6 6.4 0.00 0.00 0.00 72 1011.1
20260506223528 15 344 0.0 4.8 0.00 0.00 0.00 74 1011.2
20260506223027 15 344 0.0 3.2 0.00 0.00 0.00 72 1011.1
20260506222531 15 344 0.0 4.8 0.00 0.00 0.00 72 1011.1
20260506222027 16 344 0.0 4.8 0.00 0.00 0.00 74 1011.0
20260506221526 16 344 0.0 1.6 0.00 0.00 0.00 72 1011.1
20260506221024 15 344 0.0 8.0 0.00 0.00 0.00 71 1011.1
20260506220523 15 344 3.2 8.0 0.00 0.00 0.00 71 1011.0
20260506220023 16 350 3.2 6.4 0.00 0.00 0.00 71 1011.0
20260506215523 16 346 3.2 6.4 0.00 0.00 0.00 71 1011.0
20260506215022 16 338 1.6 4.8 0.00 0.00 0.00 72 1011.1
20260506214522 16 332 0.0 1.6 0.00 0.00 0.00 73 1011.1
20260506214022 16 332 0.0 3.2 0.00 0.00 0.00 73 1010.9
20260506213521 16 332 0.0 3.2 0.00 0.00 0.00 73 1011.0
20260506213021 16 331 0.0 0.0 0.00 0.00 0.00 74 1010.9
20260506212522 16 331 0.0 1.6 0.00 0.00 0.00 74 1011.0
20260506212022 16 331 0.0 1.6 0.00 0.00 0.00 75 1011.0
20260506211522 16 331 0.0 1.6 0.00 0.00 0.00 74 1011.0
20260506211020 16 331 0.0 3.2 0.00 0.00 0.00 75 1011.0
20260506210023 16 331 0.0 4.8 0.00 0.00 0.00 75 1010.9
20260506205519 16 331 0.0 4.8 0.00 0.00 0.00 75 1010.9
20260506205023 16 331 1.6 4.8 0.00 0.00 0.00 76 1010.9
20260506204520 16 63 1.6 4.8 0.00 0.00 0.00 76 1010.8
20260506204018 16 130 0.0 1.6 0.00 0.00 0.00 76 1010.9
20260506203518 16 130 0.0 0.0 0.00 0.00 0.00 77 1010.8
20260506203020 16 130 0.0 1.6 0.00 0.00 0.00 77 1010.7
20260506202516 16 130 0.0 1.6 0.00 0.00 0.00 76 1010.7
20260506202021 16 130 0.0 0.0 0.00 0.00 0.00 76 1010.6
20260506201516 16 130 0.0 0.0 0.00 0.00 0.00 76 1010.6
20260506201019 16 130 0.0 0.0 0.00 0.00 0.00 76 1010.4
20260506200522 16 130 0.0 0.0 0.00 0.00 0.00 76 1010.3
20260506200016 17 130 0.0 1.6 0.00 0.00 0.00 76 1010.3
20260506195516 17 130 0.0 3.2 0.00 0.00 0.00 76 1010.2
20260506195016 17 130 0.0 3.2 0.00 0.00 0.00 76 1010.0
20260506194516 17 130 0.0 3.2 0.00 0.00 0.00 76 1009.9
20260506194015 17 130 0.0 3.2 0.00 0.00 0.00 76 1009.7
20260506193515 17 130 0.0 3.2 0.00 0.00 0.00 76 1009.6
20260506193016 17 130 0.0 4.8 0.00 0.00 0.00 76 1009.7
20260506192514 17 129 0.0 4.8 0.00 0.00 0.00 75 1009.7
20260506192014 17 130 0.0 6.4 0.00 0.00 0.00 75 1009.7
20260506191514 17 130 1.6 6.4 0.00 0.00 0.00 74 1009.6
20260506191014 17 124 3.2 9.7 0.00 0.00 0.00 74 1009.7
20260506190512 17 125 3.2 9.7 0.00 0.00 0.00 73 1009.6
20260506190013 17 142 3.2 8.0 0.00 0.00 0.00 71 1009.5
20260506185511 17 132 3.2 8.0 0.00 0.00 0.00 69 1009.6
20260506185016 18 158 3.2 8.0 0.00 0.00 0.00 64 1009.4
20260506184512 18 150 3.2 8.0 0.00 0.00 0.00 63 1009.3
20260506184011 18 138 1.6 6.4 0.00 0.00 0.00 60 1009.2
20260506183511 18 138 1.6 6.4 0.00 0.00 0.00 59 1009.3
20260506183012 18 138 1.6 6.4 0.00 0.00 0.00 58 1009.1
20260506182509 18 138 0.0 4.8 0.00 0.00 0.00 57 1009.0
20260506182011 18 138 1.6 4.8 0.00 0.00 0.00 56 1009.0
20260506181510 18 126 1.6 4.8 0.00 0.00 0.00 56 1008.9
20260506181009 18 126 0.0 0.0 0.00 0.00 0.00 56 1009.1
20260506180509 18 126 0.0 0.0 0.00 0.00 0.00 54 1009.2
20260506180013 18 126 0.0 0.0 0.00 0.00 0.00 54 1009.2
20260506175507 18 126 0.0 1.6 0.00 0.00 0.00 53 1009.3
20260506175007 18 126 0.0 4.8 0.00 0.00 0.00 56 1009.4
20260506174507 18 126 1.6 4.8 0.00 0.00 0.00 58 1009.4
20260506174007 18 126 1.6 8.0 0.00 0.00 0.00 59 1009.7
20260506173507 18 126 3.2 8.0 0.00 0.00 0.00 59 1009.6
20260506173008 18 127 3.2 6.4 0.00 0.00 0.00 59 1009.7
20260506172507 18 128 1.6 8.0 0.00 0.00 0.00 58 1009.8
20260506172008 19 131 3.2 11.3 0.00 0.00 0.00 59 1009.8
20260506171512 19 147 4.8 11.3 0.00 0.00 0.00 59 1009.8
20260506171006 19 101 6.4 11.3 0.00 0.00 0.00 59 1009.8
20260506170505 20 109 6.4 11.3 0.00 0.00 0.00 60 1009.8
20260506170007 20 127 4.8 11.3 0.00 0.00 0.00 59 1009.7
20260506165505 20 140 1.6 11.3 0.00 0.00 0.00 57 1009.6
20260506165005 20 153 4.8 11.3 0.00 0.00 0.00 57 1009.4
20260506164505 20 142 3.2 6.4 0.00 0.00 0.00 56 1009.4
20260506164009 20 145 3.2 8.0 0.00 0.00 0.00 56 1009.5
20260506163507 20 150 3.2 8.0 0.00 0.00 0.00 56 1009.5
20260506163008 20 107 0.0 12.9 0.00 0.00 0.00 55 1009.5
20260506162504 20 115 0.0 9.7 0.00 0.00 0.00 55 1009.6